| time (UTC) | temp F | wind direction | speed knots | gust knots | rain 1hr in | rain 24hr in | rain mn in | humidity % | barometer mb |
| 20260503193204 | 66 | 164 | 0.0 | 2.6 | 0.00 | 0.00 | 0.00 | 62 | 1016.2 |
| 20260503192704 | 66 | 152 | 0.0 | 1.7 | 0.00 | 0.00 | 0.00 | 64 | 1016.1 |
| 20260503192204 | 65 | 127 | 0.0 | 2.6 | 0.00 | 0.00 | 0.00 | 64 | 1016.1 |
| 20260503191704 | 65 | 126 | 0.0 | 2.6 | 0.00 | 0.00 | 0.00 | 62 | 1016.2 |
| 20260503185704 | 64 | 127 | 0.0 | 6.1 | 0.00 | 0.00 | 0.00 | 65 | 1016.2 |
| 20260503185204 | 64 | 131 | 0.9 | 6.1 | 0.00 | 0.00 | 0.00 | 65 | 1016.2 |
| 20260503184704 | 64 | 128 | 0.9 | 1.7 | 0.00 | 0.00 | 0.00 | 64 | 1016.2 |
| 20260503184204 | 64 | 124 | 0.9 | 1.7 | 0.00 | 0.00 | 0.00 | 66 | 1016.2 |
| 20260503183704 | 64 | 127 | 0.0 | 1.7 | 0.00 | 0.00 | 0.00 | 66 | 1016.2 |
| 20260503183204 | 64 | 128 | 0.9 | 1.7 | 0.00 | 0.00 | 0.00 | 65 | 1016.2 |
| 20260503182704 | 64 | 122 | 0.0 | 2.6 | 0.00 | 0.00 | 0.00 | 66 | 1016.2 |
| 20260503182204 | 64 | 126 | 0.0 | 2.6 | 0.00 | 0.00 | 0.00 | 66 | 1016.2 |
| 20260503181705 | 64 | 126 | 0.9 | 2.6 | 0.00 | 0.00 | 0.00 | 64 | 1016.1 |
| 20260503180704 | 64 | 167 | 0.0 | 2.6 | 0.00 | 0.00 | 0.00 | 66 | 1016.1 |
| 20260503175204 | 63 | 93 | 0.0 | 1.7 | 0.00 | 0.00 | 0.00 | 69 | 1016.2 |
| 20260503174704 | 62 | 117 | 0.0 | 1.7 | 0.00 | 0.00 | 0.00 | 71 | 1016.1 |
| 20260503173704 | 62 | 129 | 0.0 | 2.6 | 0.00 | 0.00 | 0.00 | 70 | 1016.2 |
| 20260503173203 | 62 | 129 | 0.0 | 2.6 | 0.00 | 0.00 | 0.00 | 72 | 1016.0 |
| 20260503172704 | 62 | 127 | 0.0 | 0.9 | 0.00 | 0.00 | 0.00 | 71 | 1016.1 |
| 20260503171704 | 61 | 122 | 0.0 | 1.7 | 0.00 | 0.00 | 0.00 | 73 | 1016.2 |
| 20260503171204 | 60 | 128 | 0.0 | 0.9 | 0.00 | 0.00 | 0.00 | 75 | 1016.2 |
| 20260503170704 | 59 | 127 | 0.0 | 0.9 | 0.00 | 0.00 | 0.00 | 77 | 1016.4 |
| 20260503170204 | 59 | 94 | 0.0 | 0.9 | 0.00 | 0.00 | 0.00 | 78 | 1016.4 |
| 20260503160204 | 58 | 127 | 0.0 | 0.9 | 0.00 | 0.00 | 0.00 | 81 | 1016.3 |
| 20260503150704 | 56 | 126 | 0.0 | 0.9 | 0.00 | 0.00 | 0.00 | 85 | 1015.7 |
| 20260503150204 | 56 | 121 | 0.0 | 0.9 | 0.00 | 0.00 | 0.00 | 86 | 1015.8 |
| 20260503140205 | 55 | 123 | 0.0 | 0.0 | 0.00 | 0.00 | 0.00 | 86 | 1015.1 |
| 20260503131204 | 54 | 123 | 0.0 | 0.0 | 0.00 | 0.00 | 0.00 | 85 | 1014.5 |
| 20260503130704 | 55 | 123 | 0.0 | 0.0 | 0.00 | 0.00 | 0.00 | 85 | 1014.5 |
| 20260503130205 | 55 | 123 | 0.0 | 0.0 | 0.00 | 0.00 | 0.00 | 85 | 1014.5 |
| 20260503120204 | 55 | 123 | 0.0 | 0.0 | 0.00 | 0.00 | 0.00 | 83 | 1014.1 |
| 20260503110704 | 55 | 122 | 0.0 | 0.0 | 0.00 | 0.00 | 0.00 | 83 | 1014.5 |
| 20260503110205 | 55 | 123 | 0.0 | 0.0 | 0.00 | 0.00 | 0.00 | 83 | 1014.4 |
| 20260503090204 | 56 | 125 | 0.0 | 1.7 | 0.00 | 0.00 | 0.00 | 82 | 1014.6 |
| 20260503080204 | 55 | 120 | 0.0 | 1.7 | 0.00 | 0.00 | 0.00 | 80 | 1015.1 |
| 20260503072704 | 56 | 127 | 0.0 | 0.9 | 0.00 | 0.00 | 0.00 | 81 | 1015.3 |
| 20260503072204 | 56 | 127 | 0.0 | 0.9 | 0.00 | 0.00 | 0.00 | 81 | 1015.2 |
| 20260503071704 | 56 | 127 | 0.0 | 0.9 | 0.00 | 0.00 | 0.00 | 81 | 1015.2 |
| 20260503071206 | 56 | 124 | 0.0 | 1.7 | 0.00 | 0.00 | 0.00 | 81 | 1015.2 |
| 20260503070704 | 56 | 131 | 0.0 | 1.7 | 0.00 | 0.00 | 0.00 | 81 | 1015.2 |
| 20260503070205 | 56 | 125 | 0.0 | 1.7 | 0.00 | 0.00 | 0.00 | 81 | 1015.2 |
| 20260503060204 | 56 | 129 | 0.0 | 1.7 | 0.00 | 0.00 | 0.00 | 80 | 1015.4 |
| 20260503054703 | 56 | 117 | 0.0 | 0.9 | 0.00 | 0.00 | 0.00 | 81 | 1015.5 |
| 20260503054203 | 56 | 117 | 0.0 | 0.9 | 0.00 | 0.00 | 0.00 | 80 | 1015.6 |
| 20260503053703 | 56 | 124 | 0.0 | 0.9 | 0.00 | 0.00 | 0.00 | 80 | 1015.5 |
| 20260503053203 | 56 | 124 | 0.0 | 0.0 | 0.00 | 0.00 | 0.00 | 80 | 1015.6 |
| 20260503052703 | 56 | 124 | 0.0 | 0.0 | 0.00 | 0.00 | 0.00 | 80 | 1015.6 |
| 20260503052203 | 56 | 124 | 0.0 | 0.9 | 0.00 | 0.00 | 0.00 | 80 | 1015.7 |
| 20260503051703 | 56 | 124 | 0.0 | 0.9 | 0.00 | 0.00 | 0.00 | 80 | 1015.6 |
| 20260503051203 | 56 | 130 | 0.0 | 1.7 | 0.00 | 0.00 | 0.00 | 80 | 1015.6 |
| 20260503050703 | 56 | 123 | 0.9 | 1.7 | 0.00 | 0.00 | 0.00 | 80 | 1015.7 |
| 20260503050203 | 56 | 113 | 0.0 | 0.9 | 0.00 | 0.00 | 0.00 | 81 | 1015.6 |
| 20260503045204 | 56 | 125 | 0.0 | 1.7 | 0.00 | 0.00 | 0.00 | 81 | 1015.6 |
| 20260503044703 | 56 | 127 | 0.9 | 1.7 | 0.00 | 0.00 | 0.00 | 81 | 1015.5 |
| 20260503043703 | 56 | 129 | 0.0 | 4.3 | 0.00 | 0.00 | 0.00 | 81 | 1015.4 |
| 20260503043203 | 56 | 121 | 0.9 | 2.6 | 0.00 | 0.00 | 0.00 | 80 | 1015.4 |
| 20260503042703 | 56 | 121 | 0.0 | 2.6 | 0.00 | 0.00 | 0.00 | 80 | 1015.4 |
| 20260503042203 | 56 | 125 | 0.9 | 2.6 | 0.00 | 0.00 | 0.00 | 80 | 1015.3 |
| 20260503041203 | 56 | 124 | 0.9 | 2.6 | 0.00 | 0.00 | 0.00 | 79 | 1015.4 |
| 20260503040704 | 56 | 126 | 0.0 | 2.6 | 0.00 | 0.00 | 0.00 | 79 | 1015.3 |
| 20260503035704 | 56 | 125 | 0.0 | 1.7 | 0.00 | 0.00 | 0.00 | 79 | 1015.2 |
| 20260503035203 | 56 | 121 | 0.0 | 2.6 | 0.00 | 0.00 | 0.00 | 79 | 1015.1 |
| 20260503034703 | 56 | 141 | 0.0 | 2.6 | 0.00 | 0.00 | 0.00 | 79 | 1015.1 |
| 20260503034203 | 56 | 129 | 0.9 | 2.6 | 0.00 | 0.00 | 0.00 | 79 | 1015.0 |
| 20260503033703 | 56 | 134 | 0.0 | 0.9 | 0.00 | 0.00 | 0.00 | 79 | 1014.9 |
| 20260503033203 | 56 | 124 | 0.0 | 0.9 | 0.00 | 0.00 | 0.00 | 79 | 1014.9 |
| 20260503032703 | 57 | 119 | 0.0 | 0.9 | 0.00 | 0.00 | 0.00 | 79 | 1014.9 |
| 20260503031703 | 57 | 144 | 0.0 | 1.7 | 0.00 | 0.00 | 0.00 | 78 | 1014.8 |
| 20260503031203 | 57 | 127 | 0.0 | 1.7 | 0.00 | 0.00 | 0.00 | 78 | 1014.7 |
| 20260503030203 | 57 | 128 | 0.0 | 2.6 | 0.00 | 0.00 | 0.00 | 78 | 1014.5 |
| 20260503025703 | 57 | 130 | 0.0 | 2.6 | 0.00 | 0.00 | 0.00 | 78 | 1014.4 |
| 20260503025203 | 57 | 126 | 0.0 | 2.6 | 0.00 | 0.00 | 0.00 | 77 | 1014.4 |
| 20260503024203 | 57 | 128 | 0.0 | 1.7 | 0.00 | 0.00 | 0.00 | 77 | 1014.2 |
| 20260503022704 | 58 | 124 | 0.0 | 2.6 | 0.00 | 0.00 | 0.00 | 75 | 1014.3 |
| 20260503022204 | 58 | 126 | 0.0 | 2.6 | 0.00 | 0.00 | 0.00 | 75 | 1014.3 |
| 20260503021703 | 58 | 131 | 0.0 | 2.6 | 0.00 | 0.00 | 0.00 | 74 | 1014.3 |
| 20260503021204 | 59 | 121 | 0.0 | 2.6 | 0.00 | 0.00 | 0.00 | 73 | 1014.2 |
| 20260503020704 | 59 | 126 | 0.0 | 2.6 | 0.00 | 0.00 | 0.00 | 73 | 1014.2 |
| 20260503015703 | 60 | 122 | 0.0 | 1.7 | 0.00 | 0.00 | 0.00 | 72 | 1014.2 |
| 20260503015204 | 60 | 147 | 0.0 | 1.7 | 0.00 | 0.00 | 0.00 | 72 | 1014.3 |
| 20260503014203 | 61 | 126 | 0.0 | 1.7 | 0.00 | 0.00 | 0.00 | 71 | 1014.2 |
| 20260503013703 | 61 | 115 | 0.0 | 1.7 | 0.00 | 0.00 | 0.00 | 71 | 1014.2 |
| 20260503012706 | 61 | 131 | 0.0 | 2.6 | 0.00 | 0.00 | 0.00 | 70 | 1014.3 |
| 20260503011704 | 62 | 130 | 0.0 | 5.2 | 0.00 | 0.00 | 0.00 | 69 | 1014.3 |
| 20260503010203 | 64 | 138 | 0.0 | 1.7 | 0.00 | 0.00 | 0.00 | 68 | 1014.3 |
| 20260503005704 | 64 | 128 | 0.0 | 1.7 | 0.00 | 0.00 | 0.00 | 68 | 1014.2 |
| 20260503005204 | 64 | 148 | 0.0 | 4.3 | 0.00 | 0.00 | 0.00 | 67 | 1014.2 |
| 20260503004703 | 65 | 139 | 0.9 | 4.3 | 0.00 | 0.00 | 0.00 | 67 | 1014.2 |
| 20260503003703 | 66 | 126 | 0.0 | 1.7 | 0.00 | 0.00 | 0.00 | 66 | 1014.2 |
| 20260503002704 | 66 | 126 | 0.0 | 4.3 | 0.00 | 0.00 | 0.00 | 67 | 1014.3 |
| 20260503002204 | 66 | 130 | 0.9 | 4.3 | 0.00 | 0.00 | 0.00 | 67 | 1014.2 |
| 20260503001703 | 66 | 126 | 0.0 | 0.9 | 0.00 | 0.00 | 0.00 | 67 | 1014.3 |
| 20260502235708 | 66 | 129 | 0.0 | 1.7 | 0.00 | 0.00 | 0.00 | 67 | 1014.2 |
| 20260502235204 | 66 | 143 | 0.0 | 2.6 | 0.00 | 0.00 | 0.00 | 68 | 1014.3 |
| 20260502234703 | 66 | 156 | 0.9 | 2.6 | 0.00 | 0.00 | 0.00 | 67 | 1014.3 |
| 20260502233704 | 66 | 158 | 0.9 | 2.6 | 0.00 | 0.00 | 0.00 | 66 | 1014.4 |
| 20260502233204 | 66 | 164 | 0.0 | 2.6 | 0.00 | 0.00 | 0.00 | 67 | 1014.4 |
| 20260502232704 | 66 | 145 | 0.9 | 2.6 | 0.00 | 0.00 | 0.00 | 67 | 1014.4 |
| 20260502231703 | 66 | 147 | 0.9 | 7.0 | 0.00 | 0.00 | 0.00 | 67 | 1014.6 |
| 20260502231203 | 65 | 125 | 0.9 | 2.6 | 0.00 | 0.00 | 0.00 | 68 | 1014.7 |
| 20260502230704 | 65 | 142 | 0.0 | 5.2 | 0.00 | 0.00 | 0.00 | 68 | 1014.7 |
| 20260502225203 | 66 | 151 | 0.0 | 2.6 | 0.00 | 0.00 | 0.00 | 69 | 1015.0 |
| 20260502224704 | 65 | 156 | 0.9 | 2.6 | 0.00 | 0.00 | 0.00 | 69 | 1014.9 |
| 20260502224203 | 65 | 139 | 0.0 | 2.6 | 0.00 | 0.00 | 0.00 | 68 | 1015.1 |
| 20260502223704 | 65 | 145 | 0.9 | 2.6 | 0.00 | 0.00 | 0.00 | 69 | 1015.0 |
| 20260502222704 | 65 | 147 | 0.9 | 2.6 | 0.00 | 0.00 | 0.00 | 69 | 1015.2 |
| 20260502222203 | 65 | 128 | 0.9 | 2.6 | 0.00 | 0.00 | 0.00 | 69 | 1015.4 |
| 20260502221704 | 65 | 144 | 0.9 | 2.6 | 0.00 | 0.00 | 0.00 | 68 | 1015.4 |
| 20260502221203 | 65 | 157 | 0.9 | 4.3 | 0.00 | 0.00 | 0.00 | 67 | 1015.6 |
| 20260502220703 | 65 | 162 | 0.9 | 4.3 | 0.00 | 0.00 | 0.00 | 68 | 1015.7 |
| 20260502215703 | 66 | 134 | 0.0 | 1.7 | 0.00 | 0.00 | 0.00 | 69 | 1015.7 |
| 20260502215204 | 65 | 119 | 0.0 | 5.2 | 0.00 | 0.00 | 0.00 | 69 | 1015.8 |
| 20260502214704 | 65 | 132 | 0.9 | 5.2 | 0.00 | 0.00 | 0.00 | 67 | 1015.8 |
| 20260502213705 | 67 | 149 | 0.0 | 2.6 | 0.00 | 0.00 | 0.00 | 66 | 1015.8 |
| 20260502213204 | 67 | 136 | 0.9 | 2.6 | 0.00 | 0.00 | 0.00 | 67 | 1015.8 |
| 20260502212703 | 67 | 128 | 0.0 | 1.7 | 0.00 | 0.00 | 0.00 | 66 | 1015.9 |
| 20260502211704 | 68 | 107 | 0.0 | 1.7 | 0.00 | 0.00 | 0.00 | 66 | 1016.0 |
| 20260502211205 | 68 | 114 | 0.0 | 1.7 | 0.00 | 0.00 | 0.00 | 65 | 1016.0 |
| 20260502205704 | 67 | 154 | 0.0 | 1.7 | 0.00 | 0.00 | 0.00 | 68 | 1016.2 |
| 20260502205204 | 67 | 105 | 0.0 | 1.7 | 0.00 | 0.00 | 0.00 | 68 | 1016.3 |
| 20260502204703 | 66 | 107 | 0.0 | 2.6 | 0.00 | 0.00 | 0.00 | 69 | 1016.4 |
| 20260502204204 | 66 | 123 | 0.0 | 2.6 | 0.00 | 0.00 | 0.00 | 69 | 1016.4 |
| 20260502203703 | 66 | 137 | 0.0 | 2.6 | 0.00 | 0.00 | 0.00 | 69 | 1016.4 |
| 20260502203203 | 65 | 133 | 0.0 | 2.6 | 0.00 | 0.00 | 0.00 | 69 | 1016.7 |
| 20260502202704 | 65 | 131 | 0.0 | 2.6 | 0.00 | 0.00 | 0.00 | 69 | 1016.7 |
| 20260502201203 | 65 | 126 | 0.9 | 2.6 | 0.00 | 0.00 | 0.00 | 70 | 1016.8 |
| 20260502195704 | 65 | 125 | 0.9 | 2.6 | 0.00 | 0.00 | 0.00 | 69 | 1016.9 |
| 20260502195204 | 65 | 120 | 0.0 | 1.7 | 0.00 | 0.00 | 0.00 | 70 | 1016.9 |
| 20260502194704 | 65 | 117 | 0.0 | 2.6 | 0.00 | 0.00 | 0.00 | 70 | 1016.9 |
| 20260502194204 | 65 | 128 | 0.0 | 2.6 | 0.00 | 0.00 | 0.00 | 70 | 1017.1 |
| 20260502193704 | 65 | 125 | 0.0 | 2.6 | 0.00 | 0.00 | 0.00 | 69 | 1017.0 |